Total_Precipitation_Accumulation
0.95 1.04 0.88 0.81 0.69 0.92 1.21 1.30 1.24 1.39 1.52 1.47 1.19 1.02 1.00 0.87 0.72 0.71 0.82 0.91 0.98 0.87 0.86 0.83 0.68 0.68 0.70 0.64 0.63 0.63 0.60 0.58 0.53 0.44 0.39 0.35 0.30 0.20 0.12 0.11 0.12 0.14 0.12
1.31 1.36 1.30 1.20 0.97 1.07 1.33 1.57 1.51 1.63 1.55 1.54 1.11 0.92 0.91 0.96 0.83 0.72 0.71 0.83 0.84 0.76 0.66 0.71 0.76 0.76 0.74 0.68 0.64 0.59 0.56 0.54 0.51 0.45 0.39 0.34 0.31 0.27 0.23 0.18 0.17 0.17 0.15
1.73 1.91 1.78 1.42 1.23 1.36 1.50 1.48 1.47 1.73 1.47 1.37 1.19 1.19 1.11 0.99 0.87 0.76 0.73 0.75 0.67 0.63 0.52 0.52 0.64 0.71 0.75 0.76 0.75 0.66 0.59 0.50 0.45 0.39 0.35 0.31 0.26 0.23 0.27 0.27 0.26 0.26 0.21
1.64 1.82 1.55 1.22 1.35 1.60 1.67 1.54 1.49 1.71 1.60 1.49 1.38 1.25 1.14 0.96 0.79 0.76 0.71 0.61 0.54 0.39 0.36 0.41 0.54 0.64 0.78 0.83 0.86 0.90 0.79 0.57 0.42 0.35 0.30 0.29 0.25 0.17 0.15 0.20 0.26 0.30 0.25
1.06 1.17 1.00 0.94 1.16 1.40 1.36 1.15 1.21 1.41 1.41 1.37 1.24 0.95 0.78 0.64 0.54 0.54 0.51 0.44 0.47 0.42 0.40 0.37 0.41 0.51 0.67 0.89 0.96 0.97 0.93 0.71 0.49 0.41 0.37 0.34 0.31 0.22 0.13 0.13 0.22 0.28 0.26
0.75 0.83 0.81 0.78 0.86 0.89 0.89 1.01 1.10 1.16 0.98 0.98 0.87 0.63 0.54 0.42 0.38 0.36 0.28 0.25 0.27 0.26 0.24 0.28 0.35 0.34 0.44 0.61 0.74 0.78 0.80 0.75 0.58 0.51 0.46 0.45 0.46 0.34 0.20 0.16 0.20 0.20 0.20
0.64 0.64 0.61 0.62 0.68 0.66 0.64 0.75 0.81 0.73 0.52 0.64 0.65 0.43 0.29 0.22 0.21 0.19 0.17 0.14 0.13 0.12 0.11 0.19 0.24 0.26 0.28 0.30 0.43 0.55 0.67 0.72 0.68 0.59 0.51 0.50 0.52 0.44 0.30 0.23 0.19 0.13 0.15
0.54 0.53 0.50 0.48 0.48 0.50 0.51 0.51 0.58 0.56 0.46 0.52 0.52 0.40 0.23 0.17 0.12 0.06 0.07 0.08 0.07 0.09 0.09 0.13 0.18 0.27 0.31 0.36 0.41 0.45 0.62 0.70 0.78 0.79 0.69 0.63 0.58 0.48 0.38 0.34 0.27 0.19 0.15
0.33 0.33 0.32 0.32 0.33 0.37 0.40 0.44 0.48 0.48 0.41 0.36 0.39 0.40 0.21 0.11 0.10 0.07 0.06 0.07 0.08 0.09 0.12 0.18 0.25 0.34 0.44 0.52 0.54 0.49 0.47 0.55 0.74 0.91 0.93 0.75 0.52 0.40 0.39 0.43 0.41 0.30 0.22
0.23 0.23 0.21 0.21 0.21 0.24 0.31 0.33 0.40 0.48 0.45 0.32 0.28 0.27 0.23 0.20 0.18 0.12 0.09 0.05 0.07 0.09 0.15 0.21 0.30 0.41 0.47 0.59 0.66 0.57 0.47 0.47 0.63 0.78 0.85 0.80 0.60 0.42 0.40 0.51 0.62 0.55 0.38
0.23 0.23 0.22 0.20 0.20 0.20 0.22 0.27 0.33 0.42 0.47 0.40 0.33 0.32 0.33 0.30 0.23 0.19 0.12 0.08 0.11 0.11 0.19 0.30 0.39 0.44 0.47 0.62 0.83 0.78 0.74 0.61 0.55 0.58 0.63 0.69 0.72 0.69 0.65 0.69 0.86 0.93 0.83
0.25 0.25 0.25 0.26 0.26 0.25 0.25 0.24 0.25 0.30 0.41 0.48 0.47 0.43 0.42 0.35 0.24 0.23 0.17 0.13 0.16 0.15 0.29 0.45 0.50 0.55 0.56 0.71 0.79 0.78 0.68 0.56 0.44 0.39 0.41 0.44 0.48 0.53 0.57 0.68 0.90 1.10 1.24
0.20 0.22 0.23 0.24 0.27 0.29 0.29 0.27 0.26 0.26 0.33 0.41 0.44 0.46 0.43 0.40 0.39 0.37 0.34 0.27 0.28 0.29 0.39 0.51 0.61 0.64 0.63 0.71 0.69 0.64 0.49 0.35 0.25 0.22 0.23 0.27 0.30 0.39 0.51 0.63 0.75 0.90 1.07
0.19 0.20 0.20 0.19 0.21 0.26 0.30 0.33 0.31 0.31 0.33 0.34 0.35 0.47 0.51 0.44 0.48 0.48 0.48 0.52 0.44 0.43 0.53 0.60 0.68 0.72 0.82 0.81 0.69 0.55 0.40 0.28 0.18 0.15 0.14 0.15 0.17 0.20 0.28 0.42 0.58 0.75 0.89
0.21 0.20 0.20 0.20 0.20 0.22 0.26 0.30 0.31 0.33 0.35 0.36 0.38 0.47 0.54 0.60 0.60 0.54 0.56 0.58 0.58 0.53 0.62 0.68 0.57 0.55 0.64 0.61 0.50 0.40 0.26 0.19 0.15 0.11 0.10 0.10 0.11 0.12 0.15 0.19 0.22 0.28 0.35
0.18 0.19 0.19 0.18 0.18 0.20 0.21 0.24 0.26 0.33 0.39 0.44 0.51 0.56 0.58 0.63 0.71 0.62 0.61 0.60 0.59 0.61 0.67 0.64 0.51 0.48 0.46 0.36 0.28 0.23 0.14 0.12 0.10 0.09 0.08 0.08 0.09 0.09 0.11 0.13 0.14 0.17 0.20
0.12 0.13 0.14 0.16 0.17 0.20 0.23 0.28 0.31 0.35 0.46 0.58 0.66 0.70 0.73 0.74 0.76 0.74 0.77 0.71 0.61 0.64 0.61 0.51 0.52 0.51 0.42 0.31 0.19 0.15 0.10 0.08 0.07 0.08 0.09 0.10 0.09 0.08 0.09 0.10 0.12 0.13 0.14
0.11 0.11 0.12 0.13 0.13 0.13 0.19 0.28 0.39 0.41 0.44 0.52 0.74 0.96 0.98 0.98 0.88 0.80 0.87 0.81 0.71 0.77 0.70 0.57 0.58 0.52 0.46 0.36 0.25 0.19 0.11 0.07 0.04 0.07 0.07 0.08 0.08 0.07 0.06 0.06 0.07 0.08 0.08
0.11 0.11 0.12 0.12 0.11 0.10 0.12 0.20 0.32 0.37 0.46 0.59 0.76 0.88 1.01 1.12 1.01 0.91 0.88 0.86 0.84 0.88 0.78 0.63 0.62 0.62 0.55 0.39 0.28 0.18 0.12 0.08 0.04 0.05 0.05 0.05 0.06 0.06 0.05 0.05 0.04 0.04 0.04
0.09 0.11 0.13 0.13 0.13 0.11 0.11 0.16 0.24 0.31 0.43 0.62 0.67 0.62 0.73 0.99 1.09 1.00 0.89 0.83 0.84 0.85 0.76 0.70 0.69 0.70 0.61 0.49 0.34 0.22 0.16 0.09 0.05 0.03 0.03 0.03 0.03 0.03 0.03 0.03 0.03 0.04 0.05
0.08 0.11 0.14 0.15 0.14 0.12 0.10 0.17 0.25 0.21 0.26 0.34 0.37 0.36 0.42 0.61 0.89 1.05 1.00 0.89 0.85 0.79 0.74 0.72 0.72 0.68 0.61 0.55 0.39 0.25 0.17 0.12 0.07 0.04 0.03 0.02 0.02 0.01 0.01 0.01 0.01 0.01 0.02
0.11 0.16 0.19 0.19 0.19 0.13 0.11 0.13 0.15 0.17 0.19 0.22 0.23 0.25 0.25 0.28 0.40 0.64 0.85 0.96 0.99 0.90 0.79 0.74 0.77 0.71 0.58 0.51 0.39 0.23 0.14 0.10 0.10 0.08 0.06 0.06 0.04 0.02 0.01 0.00 0.00 0.00 0.01
0.16 0.21 0.24 0.26 0.27 0.26 0.18 0.12 0.09 0.12 0.16 0.19 0.22 0.23 0.18 0.16 0.23 0.30 0.44 0.59 0.75 0.81 0.80 0.78 0.76 0.75 0.67 0.58 0.46 0.29 0.17 0.11 0.08 0.07 0.06 0.07 0.03 0.02 0.01 0.00 0.00 0.00 0.00
0.22 0.26 0.29 0.31 0.36 0.35 0.25 0.17 0.13 0.11 0.16 0.20 0.23 0.23 0.20 0.18 0.19 0.24 0.30 0.34 0.42 0.51 0.55 0.58 0.64 0.69 0.70 0.65 0.55 0.42 0.26 0.15 0.10 0.07 0.05 0.06 0.04 0.03 0.02 0.01 0.00 0.00 0.00
0.30 0.31 0.32 0.37 0.40 0.43 0.33 0.21 0.17 0.19 0.23 0.23 0.23 0.23 0.23 0.22 0.19 0.16 0.23 0.28 0.31 0.36 0.43 0.49 0.53 0.60 0.66 0.65 0.59 0.44 0.27 0.14 0.10 0.08 0.04 0.04 0.04 0.05 0.06 0.03 0.01 0.00 0.00
0.39 0.38 0.36 0.40 0.44 0.50 0.43 0.25 0.20 0.24 0.31 0.31 0.34 0.32 0.25 0.24 0.22 0.14 0.17 0.22 0.25 0.29 0.33 0.36 0.42 0.47 0.46 0.48 0.53 0.41 0.26 0.13 0.08 0.07 0.04 0.02 0.03 0.03 0.05 0.03 0.01 0.00 0.00